CDT,Max TemperatureF,Mean TemperatureF,Min TemperatureF,Max Dew PointF,MeanDew PointF,Min DewpointF,Max Humidity, Mean Humidity, Min Humidity, Max Sea Level PressureIn, Mean Sea Level PressureIn, Min Sea Level PressureIn, Max VisibilityMiles, Mean VisibilityMiles, Min VisibilityMiles, Max Wind SpeedMPH, Mean Wind SpeedMPH, Max Gust SpeedMPH,PrecipitationIn, CloudCover, Events, WindDirDegrees
2012-10-1,68,58,46,48,36,27,67,44,23,30.05,30.00,29.92,10,10,10,22,9,33,0.00,1,Rain,2
2012-10-2,71,53,35,34,24,14,75,37,11,30.02,29.91,29.81,10,10,7,16,4,21,0.00,0,,202
2012-10-3,77,60,42,39,28,21,71,32,14,29.87,29.81,29.72,10,10,7,22,9,29,0.00,0,,175
2012-10-4,48,44,39,41,32,27,87,66,50,30.26,30.12,29.86,10,10,7,28,20,40,0.00,8,,317
2012-10-5,46,37,28,28,21,14,86,54,29,30.26,30.23,30.20,10,10,10,23,13,30,0.00,0,,321
2012-10-6,41,32,21,27,23,16,80,62,42,30.32,30.27,30.24,10,10,7,18,8,24,0.00,4,,354
2012-10-7,55,38,21,25,18,14,86,52,20,30.25,30.04,29.85,10,10,10,16,6,24,0.00,0,,231
2012-10-8,66,50,35,37,28,16,66,43,24,29.84,29.74,29.65,10,10,10,25,9,31,0.00,4,,247
2012-10-9,50,44,35,39,29,21,76,56,42,30.05,29.90,29.76,10,10,10,24,9,34,0.00,7,Rain,313
2012-10-10,59,41,23,28,24,18,93,51,23,30.12,30.02,29.85,10,10,10,16,8,24,0.00,1,,253
2012-10-11,53,42,28,34,27,18,81,56,38,30.38,30.13,29.84,10,10,10,18,11,25,0.00,1,,18
2012-10-12,53,38,24,39,17,7,74,45,15,30.39,30.22,29.93,10,10,10,23,9,29,0.00,3,,153
2012-10-13,68,58,48,52,46,37,100,74,49,29.91,29.73,29.65,10,8,1,20,11,28,0.00,4,,230
2012-10-14,60,50,39,45,34,30,93,58,31,29.95,29.86,29.73,10,10,7,18,8,34,0.00,0,,347
2012-10-15,66,49,32,37,34,28,87,54,30,29.96,29.85,29.68,10,10,10,16,5,21,0.00,0,,183
2012-10-16,73,58,44,43,41,37,81,54,29,29.67,29.50,29.33,10,10,7,13,7,18,0.00,0,,252
2012-10-17,62,52,41,48,40,34,87,69,42,29.43,29.32,29.15,10,10,2,33,17,47,0.00,7,Rain,291
2012-10-18,46,42,37,45,39,37,100,91,81,29.49,29.35,29.24,10,8,2,34,23,45,0.45,8,Rain,324
2012-10-19,42,40,39,39,38,37,93,90,81,29.77,29.67,29.50,10,8,3,25,18,39,0.04,8,Rain,347
2012-10-20,55,45,35,45,41,36,100,86,63,29.78,29.73,29.68,10,8,0,15,6,18,0.00,4,Fog,189
2012-10-21,62,53,44,46,43,39,93,75,55,29.91,29.77,29.66,10,10,5,16,12,21,0.00,1,,85
2012-10-22,55,50,44,52,46,43,100,85,72,29.92,29.87,29.78,10,9,4,17,10,23,0.00,7,,67
2012-10-23,57,55,53,55,53,52,100,93,88,29.81,29.72,29.66,10,4,0,14,7,,0.00,8,Fog-Rain,202
2012-10-24,53,45,37,52,42,34,100,84,62,29.89,29.84,29.80,10,8,4,18,9,26,0.00,7,,19
2012-10-25,37,34,30,34,29,25,100,82,65,30.25,29.99,29.82,10,8,1,23,17,32,0.04,7,Rain-Snow-Thunderstorm,342
2012-10-26,35,30,26,27,24,21,80,68,60,30.40,30.34,30.25,10,10,10,16,12,23,0.00,8,,300
2012-10-27,37,29,21,30,25,19,93,77,65,30.33,30.28,30.22,10,10,10,15,6,17,0.00,3,Snow,197
2012-10-28,46,38,30,32,30,27,93,73,53,30.24,30.20,30.15,10,10,10,18,9,24,0.00,4,,177
2012-10-29,53,45,37,30,30,28,75,63,41,30.17,30.13,30.09,10,10,10,22,13,30,0.00,2,,163
2012-10-30,46,40,33,30,28,21,81,65,37,30.12,30.09,30.05,10,10,7,10,8,,0.00,6,Rain,135
2012-10-31,57,44,30,36,29,21,87,62,38,30.05,30.00,29.95,10,10,10,9,4,,0.00,1,,218